Location: Brompton
(51.4000°N, 0.5333°E)
Time: 14:44:37
(UTC+00:00)

Cosmos 1536 - Pass Details

Date: 11 May 2021
Orbit: 539 x 559 km, 82.5° (Epoch: 23 June)

Event Time Altitude Azimuth Distance (km) Brightness Sun altitude
Rises 21:03:00 0° 357° (N) 2,752 7.3 -11.1°
Reaches altitude 10° 21:05:24 10° 8° (N) 1,849 6.1 -11.3°
Maximum altitude 21:09:00 29° 70° (ENE) 1,025 4.0 -11.7°
Enters shadow 21:11:24 17° 121° (ESE) 1,448 4.4 -11.9°
